Grizzly Air Cargo 5379


PABE
Bethel Airport
Bethel, Alaska, US
PAKN
King Salmon Airport
King Salmon, Alaska, US

Activity Log

Date Flight Route Aircraft Duration
No Flights Yet

Route Details

Aircraft Information
Primary: Saab 340AF
Backup: Not Available
Route Data
Distance: 208nm
Sched. Duration: 1h 00m
Avg. Duration: 0h 00m (-100m)
Times Flown: 0
Recm'd Route: BET J123 AKN
Planned Altitude: 21,000ft
Origin Wx: PABE 032253Z 00000KT 10SM OVC026 13/08 A3015 RMK AO2 SLP210 T01330078 $
Dest. Wx: PAKN 032254Z 21007KT 5SM -RA BR OVC009 16/14 A3011 RMK AO2 RAE2156B49 CIG 008V014 SLP197 P0000 T01610144
Notes:

Financial History
Total Freight: 0lbs
Average Load: 0lbs/flt
Fuel Used: 0lbs
Avg. Fuel Used: 0lbs/flt
Fuel Expense: $0
Avg. Fuel Expense: $0
Avg. Fuel Cost: $0/lbs
Total Gross Income: $0
Pilot Pay: $0
Total Expenses: $0
Total Revenue: $0
Average Revenue: $0